Wind_Speed
135 136 136 137 137 137 138 139 139 139 140 141 141 142 142 143 143 143 143 143 143 143 143 143 142 142 142 142 142 142 142 141 141 140 140 140 139 139 139 138 138 138 137 137 136 136 135 134 133 132 131 130 129 127 125 123 121 118 116 114 111 108 106 103 101 99 97 95 93 92 91 90 89 89 88 88 88 88 88 88 87 87 87 87 87 87
136 137 137 137 137 138 138 139 139 140 140 141 141 142 142 142 142 143 143 142 142 142 141 141 141 141 140 140 140 140 139 139 139 138 137 137 137 136 136 136 135 135 134 134 133 133 132 131 130 129 127 126 124 122 120 118 116 113 111 108 106 104 102 99 97 96 94 92 91 89 88 87 86 86 85 85 85 85 85 85 85 85 85 85 85 85
137 138 138 139 139 139 139 140 140 140 140 140 141 141 141 141 141 142 141 141 141 140 140 139 139 138 138 138 137 137 137 136 136 135 134 134 133 133 133 132 132 131 131 130 130 129 128 127 126 125 123 122 120 118 116 114 112 109 107 105 103 101 99 97 95 94 92 90 88 87 86 85 84 83 83 83 83 83 83 83 83 83 83 83 83 83
139 139 140 140 140 140 140 140 140 140 140 140 140 140 140 140 140 140 140 139 139 138 138 137 136 135 135 135 134 134 133 133 132 131 131 130 129 129 128 128 127 127 126 126 125 125 124 123 122 121 120 118 116 115 113 111 109 107 105 103 101 100 98 96 94 93 91 89 87 85 84 83 81 81 81 81 81 81 81 81 81 81 81 81 81 81
140 140 140 140 140 140 140 140 139 139 139 139 139 139 138 138 138 137 137 136 136 135 134 134 133 132 131 131 131 130 130 129 128 128 127 126 125 125 124 123 123 122 122 121 121 120 120 119 119 118 117 116 114 113 111 110 108 106 105 103 101 100 98 96 94 92 90 88 86 84 83 81 80 79 79 79 79 80 80 80 80 80 80 79 79 79
140 140 140 139 139 139 139 138 138 137 137 137 137 136 136 136 135 134 134 133 132 132 131 131 130 129 128 127 127 126 126 125 124 124 123 122 121 121 120 119 119 118 118 118 117 117 117 116 116 116 115 114 114 113 111 110 109 107 106 104 102 100 99 97 94 92 90 88 86 84 82 81 80 79 79 79 79 79 79 79 79 79 78 78 78 78
139 138 138 138 137 137 137 136 136 135 134 133 133 133 133 133 132 131 131 130 129 128 128 127 127 126 125 124 124 123 122 122 121 120 119 119 118 117 117 116 116 115 115 115 114 114 114 114 114 114 114 114 113 113 112 111 110 108 107 105 104 102 100 97 95 93 91 89 87 85 84 82 81 80 80 79 79 79 79 79 78 78 78 77 77 77
136 136 136 135 135 135 134 134 133 132 131 130 130 130 130 129 129 128 128 127 126 125 124 124 123 123 122 121 121 120 119 119 118 117 117 116 115 115 114 114 113 113 113 113 112 112 112 112 113 113 113 113 113 113 113 112 111 110 109 107 105 103 101 99 96 94 92 91 89 88 86 85 83 82 81 80 80 79 79 79 78 77 77 76 76 76
132 132 132 132 132 131 130 130 130 129 128 126 126 125 125 125 125 125 125 124 123 122 121 120 120 120 120 119 118 117 117 116 116 115 115 114 114 113 113 112 112 112 112 112 112 112 112 112 112 112 112 113 113 113 113 113 112 111 110 109 107 105 102 100 98 96 95 93 92 90 89 87 86 84 83 82 81 80 79 79 78 77 77 76 75 75
129 128 128 128 128 127 126 126 126 126 125 123 122 122 122 122 122 122 122 121 121 120 119 118 117 117 117 117 116 116 115 115 114 114 114 113 113 113 112 112 112 111 111 111 111 111 111 111 111 112 112 113 113 114 114 114 113 113 112 110 108 106 104 102 100 98 97 95 94 93 91 90 88 87 85 83 82 81 80 79 78 77 76 76 75 75
125 125 124 124 124 124 123 122 122 122 122 120 120 120 120 120 119 119 119 119 119 118 117 117 116 116 115 115 115 115 114 114 114 114 113 113 113 112 112 112 112 111 111 111 111 111 111 111 111 111 112 112 113 113 114 114 114 114 113 111 110 108 106 104 102 101 99 98 96 95 94 92 91 89 87 85 84 82 81 80 79 78 77 76 75 74
122 121 121 120 120 120 120 120 120 119 119 118 117 118 118 119 118 117 117 117 117 117 117 116 115 115 114 114 114 114 114 114 114 114 114 113 113 113 113 112 112 112 112 111 111 111 111 111 111 111 112 112 113 113 114 114 114 114 113 112 111 109 108 106 104 103 101 100 98 97 96 94 93 91 90 88 86 84 83 81 80 79 77 76 75 74
119 119 118 118 118 118 118 118 118 118 118 117 117 117 117 118 118 117 117 117 117 117 116 116 115 115 115 114 114 114 114 114 114 114 114 114 113 113 113 113 112 112 112 112 112 112 112 112 112 112 112 113 113 113 114 114 114 114 114 113 112 111 109 108 106 105 103 102 100 99 98 96 95 94 92 91 89 87 85 83 81 80 78 76 75 74
118 118 117 117 117 118 118 118 118 118 118 118 118 117 118 118 118 118 117 117 117 117 116 116 115 115 115 115 115 114 114 114 114 114 114 114 114 114 113 113 113 113 112 112 112 112 113 112 112 113 113 113 113 113 114 114 115 115 115 114 113 112 111 109 108 106 105 103 102 101 99 98 97 96 95 93 91 89 87 85 83 81 79 77 75 74
118 118 118 118 118 118 118 118 118 118 119 119 119 118 118 118 118 118 118 118 118 118 117 116 116 116 116 115 115 115 115 115 115 115 115 115 115 114 114 113 113 113 113 112 112 113 113 113 113 113 113 114 114 114 114 114 115 115 115 115 114 113 112 111 109 108 106 105 104 102 101 100 99 98 96 95 93 91 89 86 84 82 80 77 75 74
119 119 119 119 119 119 119 119 119 120 120 120 120 119 119 119 119 119 119 119 119 118 118 117 117 117 117 116 116 115 115 115 115 115 115 115 115 115 114 114 113 114 114 113 113 113 113 113 113 113 114 114 114 114 114 114 115 115 115 115 115 114 113 112 110 109 108 106 105 104 103 102 100 99 98 96 95 92 90 88 85 83 80 78 76 74
120 120 120 120 120 120 121 121 121 121 121 121 121 120 120 120 120 120 120 120 119 119 119 119 118 118 118 118 117 117 116 115 115 116 116 116 116 116 115 114 114 114 114 114 114 114 114 114 114 114 114 114 114 114 115 115 115 115 115 115 115 115 114 113 112 110 109 108 107 105 104 103 102 100 99 98 96 94 92 89 86 84 81 78 76 74
121 121 121 121 121 122 122 122 122 122 122 122 122 121 121 121 120 120 120 120 120 120 120 120 119 119 118 118 118 118 117 116 116 116 116 116 117 117 116 115 115 115 115 115 115 114 114 114 114 114 114 114 114 115 115 115 115 115 115 115 115 115 115 114 113 111 110 109 108 107 105 104 103 102 100 99 97 95 93 90 87 85 82 79 76 74
123 123 122 122 122 123 123 123 123 123 123 123 123 122 122 122 121 121 121 121 121 121 121 121 120 120 119 119 119 119 118 117 116 116 117 117 118 118 117 116 116 116 116 115 115 115 115 114 114 114 114 114 115 115 115 115 115 115 115 116 116 115 115 114 113 112 111 110 109 108 106 105 104 102 101 99 98 96 94 91 88 85 82 79 77 75
124 124 124 124 124 124 124 124 124 124 124 124 124 123 123 122 122 122 122 122 122 122 122 121 121 121 121 120 120 119 119 118 117 117 117 118 118 118 118 117 117 116 116 116 116 116 115 115 115 114 114 115 115 115 115 115 115 116 116 116 116 116 115 115 114 113 112 111 110 109 107 106 105 103 102 100 98 97 95 92 89 86 83 80 77 75
125 125 125 125 125 125 125 125 126 126 126 125 125 124 124 124 123 123 123 123 123 123 123 122 122 122 122 121 121 121 120 119 118 118 118 119 119 119 119 118 117 117 117 117 117 116 116 115 115 115 115 115 115 115 115 116 116 116 116 116 116 116 116 115 114 113 112 111 110 109 108 107 105 104 102 101 99 97 95 93 90 86 83 80 77 75
126 126 127 127 126 126 126 127 127 127 127 126 126 126 125 125 125 125 125 124 124 124 123 123 123 123 123 122 122 122 121 120 120 119 119 119 119 119 119 119 118 117 117 117 117 117 116 116 116 116 115 115 115 116 116 116 116 116 116 116 116 116 116 115 115 114 113 112 111 109 108 107 106 104 103 101 99 97 95 93 90 87 83 80 77 75
127 127 128 128 128 127 128 128 128 128 128 127 127 127 127 126 126 126 126 126 125 125 125 125 124 124 124 123 123 123 123 122 121 120 120 119 120 120 120 119 118 118 118 118 118 118 117 117 117 116 116 116 116 116 116 116 116 116 116 116 116 116 116 115 115 114 113 112 111 110 109 107 106 104 103 101 99 98 95 93 90 87 84 80 77 75
128 128 128 128 128 128 128 128 128 129 129 128 128 128 128 127 127 127 127 126 126 126 126 126 126 125 125 124 124 124 123 123 122 121 121 120 120 121 121 120 119 119 119 119 119 118 118 118 118 118 117 117 117 117 117 117 117 116 116 116 116 116 116 115 115 114 113 112 111 110 109 107 106 104 103 101 99 98 95 93 90 87 84 80 78 75
128 128 128 128 128 128 128 128 129 129 129 129 129 129 128 128 128 128 127 127 127 127 127 126 126 126 126 126 125 125 125 124 123 122 121 121 122 122 122 121 120 120 120 120 120 119 119 119 119 119 119 118 118 118 117 117 117 117 117 116 116 116 116 115 115 114 113 112 111 110 108 107 106 104 103 101 99 97 95 92 90 87 84 80 78 75
128 128 128 128 128 128 128 128 128 129 129 129 129 129 129 128 128 128 128 128 128 127 127 127 127 127 127 126 126 126 126 125 124 123 122 122 122 123 123 122 122 121 121 121 121 121 120 120 120 120 120 119 119 119 118 118 118 117 117 117 116 116 116 115 115 114 113 112 111 109 108 107 105 104 102 101 99 97 94 92 89 86 83 80 78 75
127 127 127 127 127 128 128 128 128 128 128 128 128 129 128 128 128 127 128 128 128 128 127 127 127 127 127 127 126 126 126 125 125 124 124 123 123 123 124 123 123 122 121 122 122 122 121 121 121 121 121 120 120 119 119 119 118 118 117 117 116 116 115 115 114 113 112 111 110 109 108 106 105 103 102 100 98 96 94 91 89 86 83 80 78 76
127 127 127 127 127 127 127 127 128 128 128 128 128 128 128 128 127 127 127 129 129 128 127 127 127 127 127 127 127 126 126 125 125 125 124 123 123 123 124 124 123 122 122 122 122 122 122 122 122 122 121 121 121 120 119 119 118 118 117 117 116 116 115 114 114 113 112 111 109 108 107 106 104 102 101 99 97 95 93 91 88 85 82 80 77 76
127 127 127 127 127 127 127 127 127 127 127 128 128 128 128 127 127 127 128 129 128 128 127 127 127 127 127 127 126 126 126 125 125 125 124 123 123 124 124 124 123 123 122 122 122 122 122 122 122 122 121 121 121 120 120 119 118 118 117 116 116 115 114 114 113 112 111 110 109 107 106 105 103 102 100 98 96 94 92 90 87 84 81 79 77 76
127 127 127 127 127 127 127 127 127 127 127 127 127 128 128 127 127 127 128 128 128 127 127 127 127 127 126 126 125 125 125 125 125 125 124 123 123 124 124 124 123 123 122 122 122 122 122 123 122 122 121 121 120 120 119 119 118 117 116 115 115 114 113 113 112 111 110 109 107 106 105 103 102 100 99 97 95 93 91 88 86 83 80 78 77 75
127 127 127 128 128 128 127 127 127 127 127 127 127 127 127 127 127 127 127 127 127 127 126 126 126 126 126 125 124 124 124 125 125 124 123 122 122 124 124 123 123 123 122 122 121 121 121 122 122 122 121 120 119 119 118 118 117 116 115 114 113 113 112 111 110 110 108 107 106 105 103 102 100 99 97 95 93 91 89 87 84 82 79 78 76 75
128 128 128 128 128 128 128 127 127 127 127 127 127 127 127 127 127 127 127 127 127 127 126 126 126 126 126 125 124 123 124 124 124 124 123 122 122 123 123 123 122 122 122 121 120 120 120 120 121 121 120 119 118 117 117 116 115 114 113 112 112 111 110 110 109 108 107 105 104 103 102 100 99 97 95 93 92 89 87 85 82 80 78 77 76 75
128 128 128 128 128 128 128 127 127 127 127 127 127 127 127 127 127 127 127 127 127 126 126 125 125 125 125 124 124 123 123 123 123 123 122 121 121 122 122 122 122 121 121 121 120 119 118 118 119 119 118 117 116 116 115 114 113 112 111 110 109 109 108 107 106 105 104 103 102 101 99 98 97 95 93 91 89 87 85 83 81 79 77 76 75 75
127 127 127 127 127 127 127 127 127 127 127 127 127 127 127 127 127 127 127 127 126 126 125 125 124 124 124 124 123 123 123 123 122 122 121 120 120 121 121 121 121 120 120 119 118 118 117 117 116 116 116 115 114 114 112 111 110 109 108 107 106 106 105 104 103 102 101 101 99 98 97 96 94 92 91 89 87 85 83 81 79 77 76 75 75 74
126 126 126 126 126 126 126 126 126 126 126 126 126 126 126 126 126 126 126 126 126 125 125 125 124 123 123 122 122 122 122 122 122 121 120 119 119 119 120 119 119 118 117 117 116 115 115 114 114 113 113 112 112 111 110 108 107 106 105 104 103 103 102 101 100 99 99 98 97 96 94 93 91 90 88 86 85 83 81 79 77 76 75 74 74 74
124 124 124 124 124 124 124 125 125 125 125 125 125 125 125 125 125 125 125 125 125 125 124 124 123 122 122 121 120 120 120 120 120 119 118 118 117 117 117 117 116 115 114 113 113 112 111 111 110 110 109 109 108 108 106 105 103 102 101 100 100 99 99 98 97 96 95 95 94 93 92 90 89 87 85 84 82 80 79 77 76 75 74 74 74 74
121 121 122 122 122 122 122 123 123 123 123 123 124 124 124 124 124 123 123 123 123 123 123 122 121 121 120 119 119 118 118 117 117 116 115 115 114 114 113 113 113 112 110 109 109 108 107 107 106 106 105 105 104 103 102 101 99 98 97 97 96 96 95 95 94 93 92 92 91 90 89 87 86 84 83 81 79 78 77 76 75 74 74 73 73 73
119 119 119 120 120 120 120 121 121 121 121 121 121 121 121 121 121 121 121 121 121 120 120 119 118 118 117 116 116 115 114 113 113 112 111 111 110 110 109 108 108 107 106 105 104 104 103 102 102 101 101 101 100 99 98 97 96 95 94 93 93 92 92 91 91 90 89 89 88 87 85 84 83 81 80 78 77 76 75 74 74 73 73 73 73 73
117 117 117 117 117 118 118 118 119 119 119 119 118 118 118 118 118 118 118 118 117 116 116 115 114 113 113 112 111 110 109 108 108 107 106 106 105 105 104 103 103 102 102 101 100 99 99 98 98 97 97 96 96 95 94 93 92 91 91 90 90 89 89 88 87 87 86 86 85 84 82 81 79 78 77 76 75 74 74 73 73 72 72 72 73 73
114 114 114 114 114 115 115 115 115 115 115 115 115 115 115 114 114 114 114 113 112 111 111 110 109 108 108 107 106 105 104 103 102 102 101 101 101 100 100 99 98 98 97 97 96 95 94 94 94 93 93 92 92 91 90 90 89 88 88 87 87 86 86 85 84 84 83 82 81 80 79 78 76 75 74 74 73 73 73 72 72 72 72 72 73 73
110 110 110 110 111 111 111 111 111 111 111 111 110 110 110 110 110 110 109 108 107 106 105 104 103 103 102 101 100 99 99 98 97 97 96 96 96 95 95 95 94 94 93 92 92 91 91 90 90 89 89 88 88 88 87 86 86 85 85 84 84 83 83 82 81 80 80 79 78 77 76 74 73 73 72 72 72 71 71 71 71 71 71 71 72 73
106 105 105 106 106 106 107 107 107 106 106 106 105 105 105 105 105 104 103 102 100 99 98 98 97 97 96 96 95 95 94 93 93 92 92 91 91 91 91 91 90 90 89 88 88 87 87 86 86 85 85 85 85 84 84 83 83 82 81 81 81 80 79 79 78 77 76 75 74 73 72 71 71 70 70 70 70 70 70 70 71 71 71 71 72 72
100 100 100 100 101 102 102 102 102 101 101 100 100 100 100 100 99 98 97 95 94 93 93 93 92 92 91 91 90 90 90 89 89 88 88 87 87 87 87 87 86 86 85 85 84 84 83 83 82 82 82 82 81 81 81 81 80 79 78 78 77 77 77 76 74 73 72 71 71 70 69 69 68 68 68 69 69 69 69 70 70 70 71 71 72 72
94 94 95 96 96 96 96 96 96 96 95 95 94 94 94 94 94 92 91 89 88 87 87 88 88 87 86 86 86 86 85 85 85 85 84 84 84 84 83 83 83 83 82 81 81 80 80 80 79 79 79 78 78 78 78 78 77 76 75 74 74 74 73 72 71 69 69 68 67 67 66 66 66 66 67 67 68 68 69 69 70 70 70 71 72 72
89 90 91 91 91 91 91 91 90 90 89 89 89 89 89 89 88 86 84 83 83 83 83 84 83 83 82 82 82 82 82 82 82 81 81 81 80 80 80 80 80 79 79 78 78 77 77 76 76 76 75 75 75 75 75 74 74 73 72 71 70 70 69 68 67 66 65 65 64 64 64 64 64 65 66 67 67 68 68 69 70 70 71 71 72 72
85 86 87 86 86 85 85 85 85 85 84 84 84 84 84 83 82 80 79 79 79 79 80 80 79 79 79 79 79 79 79 78 78 78 78 78 77 77 77 77 76 76 75 75 74 74 73 73 73 73 72 72 72 72 72 71 70 69 69 68 67 66 65 64 63 63 62 62 62 62 62 62 63 64 65 66 67 68 68 69 70 70 71 71 71 72
82 83 82 82 81 81 81 81 80 80 80 80 80 79 79 78 77 76 76 76 76 76 77 77 76 76 76 76 76 76 76 75 75 75 75 74 74 74 74 73 73 73 72 72 71 71 71 70 70 70 69 69 69 69 68 67 67 66 65 64 63 63 62 61 61 60 59 60 60 60 61 61 62 64 65 66 67 68 69 69 70 70 70 71 71 72
79 78 78 77 77 77 77 76 76 76 76 76 75 75 74 74 73 73 73 73 74 74 74 74 73 73 73 74 73 73 73 72 72 72 71 71 71 71 70 70 70 69 69 68 68 68 67 67 67 67 66 66 66 66 65 64 63 62 62 61 60 59 59 58 58 57 58 58 58 59 60 61 62 63 64 65 67 68 69 69 70 70 70 71 71 72
75 74 74 73 73 73 73 73 73 72 72 72 71 71 70 70 70 70 71 71 71 71 71 71 71 71 71 71 71 70 70 69 69 69 68 68 68 67 67 67 66 66 65 65 65 65 64 64 64 63 63 63 62 62 62 61 60 59 58 58 57 57 57 56 56 56 56 57 57 58 59 60 61 62 63 65 67 68 69 69 70 70 70 70 71 72
71 71 71 70 70 70 70 69 69 69 68 68 67 67 67 67 68 68 69 69 69 69 68 68 68 68 68 68 67 67 66 66 66 65 65 65 64 64 63 63 63 62 62 62 62 62 61 61 61 60 60 59 59 59 58 57 57 56 55 55 55 55 54 54 54 55 55 56 57 58 58 59 61 62 63 65 66 67 68 69 70 70 70 70 70 71
68 68 67 67 67 67 66 66 66 65 65 64 64 64 65 65 66 66 66 66 66 66 65 65 65 65 64 64 64 63 63 63 62 62 62 61 61 60 60 60 59 59 59 59 59 59 59 58 58 57 57 56 56 55 55 55 54 53 53 53 53 53 53 53 53 54 54 55 56 57 58 59 60 61 63 64 65 67 68 69 69 70 69 70 70 71
Wind_Direction
269 270 270 270 271 271 272 272 272 273 274 274 274 275 275 276 276 276 277 277 278 278 278 279 279 279 280 280 280 281 281 281 281 282 282 282 282 283 283 283 283 284 284 284 285 285 285 285 285 286 286 286 286 286 287 287 287 287 287 287 287 288 288 288 288 288 288 288 288 288 288 288 287 287 287 286 286 285 284 284 283 283 282 282 281 281
270 271 271 272 272 273 273 273 274 274 275 275 276 276 276 277 277 277 278 278 278 279 279 280 280 280 280 281 281 281 282 282 282 282 283 283 283 283 284 284 284 285 285 285 285 285 286 286 286 286 286 286 287 287 287 287 287 287 288 288 288 288 288 288 288 289 289 289 289 289 289 289 289 288 288 287 286 286 285 284 284 283 282 282 281 281
272 272 272 273 273 274 274 274 275 275 276 276 276 277 277 277 278 278 278 279 279 279 280 280 280 281 281 281 281 282 282 282 283 283 283 283 284 284 284 285 285 285 286 286 286 286 286 286 287 287 287 287 287 287 287 288 288 288 288 289 289 289 289 289 289 290 290 290 290 290 290 290 290 290 289 288 288 287 286 285 285 284 283 282 282 281
272 273 273 273 274 274 275 275 275 276 276 276 277 277 277 278 278 278 279 279 279 280 280 280 280 281 281 281 281 282 282 283 283 283 283 284 284 285 285 285 286 286 286 287 287 287 287 287 287 288 288 288 288 288 289 289 289 289 289 290 290 290 290 291 291 291 291 291 292 292 292 292 291 291 291 290 289 288 287 286 285 285 284 283 282 282
273 273 274 274 274 275 275 275 275 276 276 276 277 277 277 278 278 278 278 279 279 279 280 280 280 281 281 281 282 282 282 283 283 283 284 284 285 285 285 286 286 286 287 287 288 288 288 288 289 289 289 289 289 290 290 290 290 291 291 291 291 291 292 292 292 292 293 293 293 293 293 293 293 293 292 292 291 290 289 288 287 285 285 284 283 282
273 273 274 274 274 275 275 275 276 276 276 276 277 277 277 277 278 278 278 279 279 279 280 280 280 281 281 281 282 282 282 283 283 283 284 284 285 285 285 286 286 287 287 288 288 288 289 289 290 290 290 291 291 291 291 291 292 292 292 292 293 293 293 293 294 294 294 294 294 294 294 294 294 294 294 293 293 292 291 289 288 287 285 284 284 283
273 273 274 274 274 275 275 275 275 276 276 276 277 277 277 277 277 278 278 278 278 279 279 280 280 280 281 281 281 282 282 283 283 283 284 284 285 285 285 286 286 287 287 288 288 289 289 290 290 291 291 291 292 292 292 292 293 293 293 293 294 294 294 295 295 295 295 295 295 295 295 295 295 295 295 295 294 293 292 291 289 288 287 285 284 283
273 273 274 274 274 274 275 275 275 275 276 276 276 276 277 277 277 277 278 278 278 279 279 279 280 280 280 281 281 282 282 283 283 283 284 284 285 285 285 286 286 287 287 288 288 288 289 289 290 290 291 291 292 292 292 293 293 293 294 294 294 295 295 295 295 296 296 296 296 296 296 296 296 295 295 295 295 295 294 292 291 289 288 287 285 284
273 273 273 273 274 274 274 274 275 275 275 275 276 276 276 277 277 277 277 278 278 278 279 279 280 280 280 281 281 282 282 283 283 283 284 284 284 285 285 285 286 286 287 287 288 288 288 289 289 290 290 291 291 292 292 293 293 293 294 294 295 295 295 295 296 296 296 296 296 296 296 296 296 296 296 296 296 296 295 294 292 291 289 288 286 285
272 272 273 273 273 274 274 274 274 275 275 275 275 276 276 276 277 277 277 278 278 278 279 279 279 280 280 281 281 282 282 282 283 283 283 284 284 284 285 285 285 286 286 287 287 287 288 288 288 289 289 290 290 291 291 292 293 293 294 294 294 295 295 295 295 296 296 296 296 297 297 297 297 297 297 297 297 296 296 295 294 292 290 289 287 286
272 272 272 273 273 273 274 274 274 274 275 275 275 275 276 276 276 277 277 278 278 278 279 279 279 280 280 281 281 281 282 282 282 283 283 283 284 284 284 285 285 285 285 286 286 286 287 287 287 288 288 289 289 290 290 291 292 292 293 293 294 294 294 295 295 295 296 296 296 296 297 297 297 297 297 297 297 297 296 296 295 293 291 289 288 286
271 272 272 272 273 273 273 274 274 274 275 275 275 276 276 276 276 277 277 278 278 278 279 279 279 280 280 281 281 281 281 282 282 282 283 283 283 283 284 284 284 285 285 285 285 285 286 286 286 287 287 288 288 289 289 290 291 291 292 292 293 293 294 294 294 295 295 295 296 296 296 296 297 297 297 297 297 297 297 296 295 294 292 290 288 287
271 271 272 272 273 273 273 274 274 274 275 275 275 275 276 276 276 277 277 277 278 278 279 279 279 280 280 280 280 281 281 281 282 282 282 282 283 283 283 283 284 284 284 284 284 285 285 285 285 286 286 287 287 288 288 289 289 290 291 291 292 292 293 293 294 294 294 295 295 295 296 296 296 296 296 297 297 297 297 296 295 294 293 291 289 288
271 271 272 272 273 273 273 274 274 274 274 275 275 275 275 276 276 277 277 277 278 278 278 279 279 279 279 280 280 280 280 281 281 281 281 282 282 282 282 282 283 283 283 283 284 284 284 284 285 285 285 286 286 287 287 288 288 289 290 290 291 292 292 292 293 293 294 294 294 295 295 295 296 296 296 296 296 296 296 296 296 295 293 291 289 288
271 272 272 272 272 273 273 273 274 274 274 274 274 275 275 275 276 276 276 277 277 277 278 278 278 278 279 279 279 279 280 280 280 280 281 281 281 281 281 282 282 282 282 282 283 283 283 284 284 284 285 285 285 286 286 287 287 288 289 289 290 291 291 292 292 293 293 293 294 294 294 295 295 295 295 295 296 296 296 296 295 295 293 291 290 288
271 272 272 272 272 273 273 273 273 273 274 274 274 274 275 275 275 276 276 276 277 277 277 277 278 278 278 278 278 278 279 279 279 279 280 280 280 280 281 281 281 281 281 282 282 282 283 283 283 283 284 284 284 285 285 286 286 287 288 288 289 290 290 291 291 292 292 292 293 293 293 294 294 294 295 295 295 295 296 295 295 294 293 291 290 288
271 271 272 272 272 272 272 272 273 273 273 273 274 274 274 274 275 275 275 276 276 276 276 277 277 277 277 277 278 278 278 278 278 278 279 279 279 280 280 280 280 280 281 281 281 281 282 282 282 283 283 283 284 284 285 285 286 286 287 287 288 289 289 290 290 291 291 292 292 292 293 293 293 293 294 294 294 295 295 295 295 294 293 291 289 288
271 271 271 271 271 271 272 272 272 272 272 273 273 273 273 274 274 274 274 275 275 275 276 276 276 276 276 276 277 277 277 277 277 277 278 278 278 279 279 279 279 279 280 280 280 280 281 281 281 282 282 282 283 283 284 284 285 285 286 286 287 288 288 289 289 290 290 291 291 291 292 292 292 293 293 293 293 294 294 294 294 293 292 291 289 288
270 270 270 270 270 271 271 271 271 271 272 272 272 272 273 273 273 273 274 274 274 274 275 275 275 275 275 275 276 276 276 276 276 276 277 277 277 278 278 278 278 279 279 279 279 280 280 280 281 281 281 282 282 282 283 283 284 284 285 285 286 287 287 288 288 289 289 290 290 290 291 291 291 292 292 292 293 293 293 293 293 293 292 290 289 287
269 269 269 270 270 270 270 270 271 271 271 271 272 272 272 272 272 273 273 273 273 273 274 274 274 274 274 274 275 275 275 275 275 275 275 276 276 277 277 277 278 278 278 278 279 279 279 279 280 280 280 281 281 282 282 283 283 284 284 285 285 286 286 287 287 288 288 289 289 290 290 290 290 291 291 291 292 292 292 292 292 292 291 290 288 287
269 269 269 269 269 269 269 270 270 270 271 271 271 271 271 271 272 272 272 272 272 273 273 273 273 273 274 274 274 274 275 275 274 274 275 275 275 276 276 276 277 277 277 277 278 278 278 279 279 279 280 280 280 281 281 282 282 283 283 284 284 285 285 286 286 287 287 288 288 289 289 289 289 290 290 290 291 291 291 292 292 291 290 289 288 287
268 269 269 269 269 269 269 269 270 270 270 271 271 271 271 271 271 271 271 271 272 272 272 272 272 273 273 273 273 274 274 274 274 274 274 274 274 275 275 276 276 276 276 277 277 277 278 278 278 278 279 279 280 280 280 281 281 282 282 283 283 284 284 285 285 286 286 287 287 288 288 288 288 289 289 289 290 290 290 291 291 290 290 289 287 286
268 268 269 269 269 269 269 269 269 270 270 270 270 270 270 270 270 270 271 271 271 271 271 271 272 272 272 272 272 273 273 273 273 273 273 273 274 274 275 275 275 275 276 276 276 277 277 277 278 278 278 278 279 279 280 280 280 281 281 282 282 283 283 284 284 285 285 286 286 287 287 287 287 288 288 288 289 289 289 290 290 290 289 288 287 286
269 269 269 269 269 269 269 269 269 269 270 270 270 270 270 270 270 270 270 270 271 271 271 271 271 271 271 271 272 272 272 272 272 273 273 273 273 273 274 274 274 275 275 275 276 276 276 277 277 277 278 278 278 279 279 279 280 280 280 281 281 282 282 283 284 284 285 285 285 285 286 286 286 287 287 287 288 288 288 289 289 289 288 287 286 285
269 269 269 269 269 269 269 269 269 269 269 269 270 270 270 270 270 270 270 270 270 270 270 270 270 270 271 271 271 271 272 272 272 272 272 272 273 273 273 274 274 274 274 275 275 275 276 276 276 277 277 277 278 278 278 278 279 279 280 280 280 281 282 282 283 283 283 284 284 284 285 285 285 286 286 286 287 287 287 288 288 288 287 286 285 284
269 269 269 269 269 269 269 269 269 269 269 269 270 270 270 270 270 270 270 270 270 270 270 270 270 270 270 270 271 271 271 272 272 272 272 272 272 272 273 273 273 273 274 274 275 275 275 275 276 276 276 277 277 277 277 278 278 278 279 279 280 280 281 281 282 282 282 283 283 283 284 284 284 285 285 285 286 286 286 287 287 287 286 285 285 284
269 269 269 269 269 269 269 269 269 269 269 270 270 270 270 270 270 270 270 270 270 270 270 270 270 270 270 270 270 271 271 271 271 272 272 272 272 272 272 273 273 273 273 274 274 274 275 275 275 276 276 276 276 277 277 277 277 278 278 278 279 279 280 280 281 281 281 282 282 282 283 283 283 284 284 284 285 285 285 286 286 286 285 284 284 283
270 270 270 270 270 270 270 270 270 270 270 270 270 270 270 270 270 270 270 270 270 270 270 270 270 270 270 270 270 271 271 271 271 271 272 272 272 272 272 272 273 273 273 273 274 274 274 274 275 275 275 276 276 276 276 276 277 277 277 278 278 278 279 279 280 280 280 281 281 281 282 282 282 283 283 283 284 284 285 285 285 285 284 283 283 282
270 270 270 270 270 270 270 270 270 270 270 270 270 270 270 270 270 270 270 270 270 270 270 270 270 270 270 270 270 271 271 271 271 271 272 272 272 272 272 272 272 272 273 273 273 273 274 274 274 274 275 275 275 275 275 276 276 276 276 277 277 277 278 278 278 279 279 279 280 280 280 281 281 282 282 282 283 283 284 284 284 283 283 282 282 282
270 270 270 270 270 269 269 270 270 270 270 270 270 270 270 270 270 270 270 270 270 270 270 270 270 270 270 270 271 271 271 271 271 271 272 272 271 272 272 272 272 272 272 273 273 273 273 274 274 274 274 274 275 275 275 275 275 276 276 276 276 276 277 277 277 278 278 278 279 279 280 280 280 281 281 282 282 282 283 283 283 282 282 281 281 281
269 269 269 269 269 269 269 269 269 269 270 270 270 270 270 270 270 270 270 270 270 270 270 270 270 270 270 270 271 271 271 271 271 272 272 271 271 272 272 272 272 272 272 272 272 273 273 273 274 274 274 274 274 274 274 275 275 275 275 275 275 275 276 276 276 277 277 277 278 278 279 279 279 280 280 281 281 281 282 282 281 281 281 281 281 281
269 269 269 269 269 269 269 269 269 269 269 269 269 270 270 270 270 270 270 270 270 270 270 270 270 270 270 270 271 271 271 271 271 272 272 272 272 272 272 272 272 272 272 272 272 272 273 273 273 273 274 274 274 274 274 274 274 274 274 274 274 275 275 275 275 276 276 276 277 277 278 278 279 279 279 280 280 280 280 280 280 280 280 280 280 280
269 269 269 269 269 269 269 269 269 269 269 269 269 269 269 269 269 270 270 270 270 270 270 270 270 270 270 270 270 270 271 271 271 272 272 272 272 272 272 272 272 272 272 272 272 272 272 272 272 273 273 273 273 273 273 273 273 273 274 274 274 274 274 274 275 275 275 276 276 276 277 277 278 278 278 279 279 279 279 279 279 279 279 279 279 280
269 269 269 269 269 269 269 269 269 269 269 269 269 269 269 269 269 269 269 270 270 270 270 270 270 270 270 270 270 270 271 271 271 272 272 272 272 272 272 272 272 272 272 272 272 272 272 272 272 272 272 273 273 273 273 273 273 273 273 273 273 273 273 274 274 274 274 275 275 275 276 276 277 277 277 278 278 278 278 278 278 278 278 278 279 279
268 269 269 269 269 269 269 269 269 269 269 269 269 269 269 269 269 269 269 269 270 270 270 270 270 270 270 270 270 270 271 271 271 272 272 271 271 271 272 272 272 272 272 272 272 272 271 271 271 271 271 272 272 272 272 272 272 272 272 272 272 272 272 273 273 273 273 274 274 275 275 275 276 276 276 277 277 277 277 277 277 277 277 278 278 279
269 269 269 269 269 269 269 269 269 269 269 269 269 269 269 269 269 269 269 269 269 270 270 270 270 270 270 270 270 270 271 271 271 272 271 271 271 271 271 271 272 272 271 271 271 271 271 271 271 271 271 271 271 271 271 272 272 271 271 271 271 272 272 272 272 272 273 273 273 274 274 275 275 275 275 276 276 276 276 276 276 276 277 277 278 279
269 269 269 269 269 269 269 269 269 269 269 269 269 269 269 269 269 269 269 269 270 270 270 270 270 270 270 270 270 271 271 271 271 271 271 271 271 271 271 271 271 271 271 271 271 271 270 270 270 270 270 270 270 270 271 271 271 271 270 270 271 271 271 271 271 272 272 272 273 273 273 274 274 274 275 275 275 275 275 275 275 275 276 277 278 279
269 269 269 269 269 269 269 269 269 269 269 269 269 269 269 270 270 270 270 270 270 270 270 270 270 270 271 271 271 271 271 271 271 271 271 271 271 271 270 270 270 270 270 270 270 270 270 270 269 269 269 269 269 270 270 270 270 270 270 270 270 270 270 270 271 271 271 271 272 272 273 273 273 273 274 274 274 274 274 274 274 275 276 277 278 279
269 269 269 269 269 269 269 269 269 269 269 269 270 270 270 270 270 270 270 270 270 270 270 271 271 271 271 271 271 271 270 270 270 270 270 270 270 270 270 270 270 270 270 269 269 269 269 269 269 269 269 269 269 269 269 269 269 269 269 269 269 269 269 270 270 270 270 271 271 272 272 272 272 272 272 273 273 273 273 273 274 275 276 277 278 279
269 269 269 269 269 269 270 269 269 269 270 270 270 270 270 270 270 270 270 270 270 270 271 271 271 271 271 271 270 270 270 270 270 270 269 269 269 269 269 269 269 269 269 269 268 268 268 268 268 268 268 268 268 268 268 268 268 268 268 268 268 268 269 269 269 269 270 270 270 271 271 271 271 271 271 271 272 272 272 273 274 275 276 277 278 279
269 269 269 269 269 269 269 269 269 269 270 270 270 270 270 270 270 270 270 270 270 271 271 271 271 271 270 270 270 270 270 269 269 269 269 269 268 268 268 268 268 268 268 268 267 267 267 267 267 267 267 267 267 267 267 267 267 267 267 267 267 268 268 268 268 269 269 269 270 270 270 270 270 270 270 271 271 271 272 273 274 275 276 277 278 279
269 269 269 269 269 269 269 269 269 269 269 270 270 270 270 270 270 270 270 270 270 271 271 270 270 270 270 270 269 269 269 269 268 268 268 268 268 267 267 267 267 267 267 266 266 266 266 266 266 266 266 266 266 266 266 266 266 266 266 266 267 267 267 267 268 268 268 268 269 269 269 269 269 269 270 270 271 271 272 273 274 275 276 277 278 279
269 269 269 269 269 269 269 269 269 269 269 269 269 269 269 270 270 270 270 270 270 270 270 270 270 269 269 269 269 268 268 268 268 267 267 267 267 267 266 266 266 266 266 265 265 265 265 265 265 265 265 265 265 265 265 265 265 265 266 266 266 266 266 267 267 267 267 268 268 268 268 268 269 269 269 270 271 271 272 273 274 275 276 277 278 279
270 270 270 269 269 269 269 269 269 269 269 269 269 269 269 269 270 270 270 270 270 270 269 269 269 269 268 268 268 268 267 267 267 266 266 266 266 265 265 265 265 265 265 265 264 264 264 264 264 264 264 264 264 264 264 264 265 265 265 265 265 265 266 266 267 267 267 267 267 267 267 268 268 269 269 270 271 271 272 273 274 275 276 277 278 279
271 270 270 269 269 269 269 269 269 269 269 269 269 269 269 269 269 270 270 270 269 269 268 268 268 268 268 267 267 267 266 266 266 266 265 265 265 264 264 264 264 264 264 264 264 263 263 263 263 263 263 263 263 263 263 264 264 264 264 264 265 265 265 266 266 266 266 266 266 266 267 267 268 269 269 270 271 272 273 274 275 276 277 277 278 279
271 270 270 269 269 269 269 269 269 269 269 269 269 269 269 269 269 270 269 269 269 268 268 267 267 267 267 266 266 266 265 265 265 265 264 264 264 264 263 263 263 263 263 263 263 262 262 262 262 262 262 262 262 262 262 263 263 263 263 264 264 264 264 265 265 265 265 265 266 266 266 267 268 269 269 270 271 272 273 274 275 276 277 278 279 279
271 270 270 270 270 270 270 269 269 269 269 269 269 269 269 269 269 269 269 268 268 267 267 266 266 266 266 265 265 265 264 264 264 264 263 263 263 263 262 262 262 262 262 262 262 261 261 261 261 261 261 261 261 261 262 262 262 262 263 263 263 264 264 264 264 264 265 265 266 266 267 267 268 269 270 271 272 273 274 274 275 276 277 278 279 280
270 270 270 270 270 270 270 269 269 269 269 269 269 269 269 269 269 269 268 267 267 266 266 266 265 265 264 264 264 264 264 263 263 263 263 262 262 262 262 261 261 261 261 261 260 260 260 260 260 260 260 260 260 261 261 261 261 262 262 262 263 263 263 264 264 264 264 265 265 266 267 267 268 269 270 271 272 273 274 275 276 276 277 278 279 281
270 270 270 270 270 270 269 269 269 269 269 269 269 269 269 268 268 267 267 266 265 265 265 264 264 264 263 263 263 263 263 262 262 262 262 261 261 261 261 260 260 260 260 259 259 259 259 259 259 259 259 259 259 260 260 260 261 261 261 262 262 262 263 263 264 264 264 265 265 266 267 268 268 269 271 272 273 274 275 275 276 277 278 279 280 281
270 270 270 270 270 269 269 269 269 269 268 268 268 268 268 267 266 266 265 265 264 264 264 264 263 263 263 263 262 262 262 262 261 261 261 260 260 260 259 259 259 259 258 258 258 258 258 258 258 258 258 258 258 259 259 260 260 260 261 261 261 262 263 263 264 264 264 265 266 266 267 268 269 270 271 272 273 275 275 276 277 278 279 280 281 282
270 270 270 269 269 269 268 268 268 268 268 267 267 267 266 265 265 264 264 263 263 263 263 263 263 263 262 262 262 262 261 261 260 260 260 259 259 259 258 258 258 257 257 257 257 257 257 257 257 257 257 258 258 258 258 259 259 260 260 261 261 262 262 263 264 264 265 265 266 267 268 269 269 270 271 273 274 275 276 277 278 279 280 281 281 282
Height
10561 10559 10558 10559 10559 10559 10557 10555 10555 10555 10555 10553 10550 10550 10550 10549 10549 10548 10547 10548 10548 10547 10546 10545 10545 10544 10544 10544 10542 10542 10542 10542 10542 10541 10540 10539 10538 10537 10536 10535 10534 10534 10533 10532 10532 10531 10530 10530 10529 10529 10529 10528 10527 10527 10527 10526 10525 10525 10524 10523 10522 10521 10520 10519 10518 10517 10515 10514 10512 10510 10509 10507 10505 10503 10500 10498 10496 10494 10492 10490 10489 10487 10485 10484 10482 10481
10552 10552 10550 10550 10550 10550 10549 10547 10546 10545 10546 10545 10542 10541 10541 10541 10540 10539 10538 10538 10539 10539 10538 10537 10536 10535 10535 10534 10534 10532 10532 10532 10532 10532 10531 10530 10529 10527 10526 10525 10524 10524 10522 10522 10521 10520 10520 10519 10519 10519 10518 10518 10517 10517 10517 10517 10516 10516 10515 10514 10514 10512 10512 10510 10509 10509 10507 10506 10504 10502 10501 10499 10497 10495 10494 10491 10489 10487 10485 10483 10481 10480 10478 10477 10475 10474
10543 10542 10542 10540 10540 10541 10541 10539 10537 10537 10537 10536 10535 10533 10532 10532 10532 10530 10529 10529 10529 10529 10529 10529 10528 10527 10527 10525 10525 10524 10524 10523 10522 10522 10522 10521 10520 10519 10517 10515 10515 10514 10512 10512 10511 10510 10509 10509 10509 10508 10507 10507 10507 10507 10507 10507 10507 10507 10506 10505 10505 10504 10503 10502 10501 10500 10499 10497 10496 10495 10493 10492 10490 10488 10486 10484 10482 10480 10478 10476 10474 10472 10471 10470 10469 10467
10534 10534 10533 10531 10531 10532 10532 10531 10530 10529 10528 10527 10526 10525 10525 10524 10524 10522 10521 10520 10520 10520 10520 10520 10519 10519 10519 10517 10516 10515 10515 10514 10514 10513 10512 10512 10511 10510 10509 10507 10505 10504 10504 10502 10501 10500 10499 10499 10498 10497 10497 10497 10497 10497 10497 10497 10497 10497 10497 10496 10495 10495 10494 10494 10492 10492 10490 10489 10488 10487 10485 10484 10482 10481 10479 10477 10475 10473 10471 10469 10467 10466 10464 10463 10462 10460
10525 10525 10524 10523 10522 10522 10522 10522 10522 10521 10520 10519 10517 10517 10517 10517 10516 10515 10514 10513 10512 10512 10511 10510 10510 10510 10510 10509 10509 10507 10507 10506 10505 10505 10504 10504 10503 10502 10500 10499 10497 10496 10495 10494 10492 10490 10489 10489 10487 10487 10487 10487 10487 10487 10487 10487 10487 10487 10487 10487 10486 10486 10485 10485 10484 10483 10482 10481 10480 10479 10478 10477 10475 10474 10472 10470 10469 10467 10464 10462 10461 10459 10458 10456 10455 10454
10516 10515 10516 10515 10514 10514 10513 10513 10513 10512 10512 10510 10509 10508 10508 10508 10507 10507 10506 10505 10505 10504 10504 10503 10502 10502 10502 10501 10500 10499 10499 10499 10497 10497 10496 10495 10495 10494 10492 10491 10490 10488 10487 10485 10484 10482 10481 10480 10479 10477 10477 10476 10476 10476 10476 10477 10477 10477 10477 10477 10477 10476 10475 10475 10475 10474 10474 10473 10472 10471 10470 10469 10468 10467 10465 10464 10462 10460 10458 10456 10454 10452 10451 10450 10448 10447
10507 10507 10507 10507 10506 10505 10505 10505 10505 10504 10503 10502 10501 10500 10499 10499 10499 10499 10498 10498 10497 10497 10496 10495 10495 10494 10494 10493 10492 10492 10491 10490 10489 10489 10488 10487 10487 10486 10485 10484 10482 10480 10479 10478 10477 10475 10474 10472 10470 10469 10468 10467 10467 10466 10466 10466 10467 10467 10467 10467 10467 10466 10466 10466 10465 10465 10465 10464 10464 10464 10463 10462 10460 10460 10458 10457 10455 10453 10451 10449 10448 10446 10444 10443 10442 10440
10499 10498 10497 10497 10497 10497 10497 10496 10496 10496 10495 10495 10493 10492 10490 10489 10489 10489 10489 10489 10489 10489 10489 10488 10487 10486 10485 10485 10485 10484 10484 10482 10481 10480 10480 10479 10479 10478 10477 10476 10475 10474 10472 10471 10470 10469 10467 10465 10464 10462 10461 10459 10459 10457 10457 10457 10457 10457 10457 10457 10457 10457 10457 10456 10456 10456 10455 10455 10455 10455 10455 10454 10453 10452 10451 10450 10448 10447 10445 10443 10441 10440 10438 10436 10435 10434
10491 10490 10489 10488 10488 10488 10488 10487 10487 10487 10487 10487 10486 10484 10482 10480 10480 10480 10480 10480 10481 10481 10481 10481 10480 10479 10478 10477 10477 10477 10476 10475 10474 10472 10472 10471 10470 10470 10469 10469 10468 10467 10465 10464 10463 10462 10460 10459 10457 10456 10454 10452 10451 10450 10449 10449 10448 10448 10447 10447 10447 10447 10447 10447 10447 10447 10447 10447 10447 10447 10446 10446 10445 10445 10444 10443 10441 10440 10438 10437 10435 10433 10431 10430 10428 10427
10482 10482 10480 10479 10479 10479 10479 10479 10477 10477 10478 10479 10479 10477 10474 10473 10472 10472 10471 10472 10472 10472 10472 10473 10473 10472 10470 10470 10470 10470 10469 10468 10466 10464 10464 10464 10463 10462 10462 10461 10460 10459 10458 10457 10455 10454 10453 10452 10450 10449 10448 10446 10444 10443 10442 10440 10440 10439 10439 10439 10439 10439 10439 10439 10439 10439 10439 10439 10438 10438 10438 10437 10437 10437 10436 10435 10434 10433 10432 10430 10428 10427 10425 10423 10422 10420
10474 10473 10472 10472 10471 10470 10470 10470 10469 10469 10469 10470 10470 10468 10466 10465 10465 10465 10465 10464 10463 10463 10464 10465 10465 10464 10464 10462 10462 10461 10461 10460 10459 10457 10455 10455 10455 10455 10454 10453 10452 10452 10450 10450 10449 10447 10446 10445 10444 10443 10441 10440 10438 10436 10435 10434 10432 10432 10431 10430 10430 10430 10430 10430 10430 10430 10430 10430 10430 10430 10429 10429 10429 10429 10428 10428 10427 10426 10425 10423 10422 10420 10418 10417 10415 10414
10465 10464 10464 10464 10464 10462 10462 10461 10460 10460 10461 10462 10461 10459 10457 10455 10456 10457 10459 10457 10455 10455 10455 10457 10457 10457 10456 10455 10454 10453 10452 10452 10451 10450 10448 10447 10447 10447 10446 10445 10445 10444 10443 10442 10441 10440 10439 10438 10437 10436 10434 10433 10432 10430 10429 10427 10425 10425 10424 10423 10423 10422 10422 10422 10422 10422 10422 10422 10422 10422 10422 10421 10421 10420 10420 10420 10420 10419 10418 10417 10415 10414 10412 10410 10408 10407
10455 10455 10456 10456 10455 10455 10454 10453 10452 10452 10452 10452 10452 10451 10449 10447 10447 10449 10450 10450 10448 10447 10448 10449 10449 10449 10447 10447 10447 10445 10444 10443 10442 10442 10441 10440 10439 10438 10438 10437 10437 10435 10435 10434 10433 10432 10430 10430 10430 10429 10427 10426 10425 10424 10422 10420 10419 10418 10417 10416 10415 10415 10415 10415 10414 10414 10414 10414 10414 10414 10414 10414 10413 10412 10412 10412 10412 10412 10410 10410 10408 10407 10405 10403 10402 10400
10447 10447 10447 10448 10448 10447 10445 10445 10445 10444 10444 10443 10443 10442 10442 10440 10440 10441 10442 10441 10440 10439 10440 10442 10442 10441 10439 10439 10439 10438 10437 10435 10434 10434 10433 10432 10431 10430 10430 10430 10429 10427 10427 10427 10425 10424 10422 10422 10422 10420 10419 10419 10418 10417 10415 10414 10412 10411 10410 10409 10408 10407 10407 10407 10407 10407 10407 10407 10407 10406 10406 10405 10405 10405 10405 10404 10404 10404 10404 10403 10402 10400 10399 10397 10395 10394
10438 10438 10439 10440 10439 10438 10437 10437 10437 10435 10435 10434 10434 10434 10434 10434 10433 10433 10434 10433 10432 10431 10432 10434 10434 10433 10432 10432 10432 10430 10429 10428 10426 10425 10425 10424 10423 10422 10423 10423 10421 10419 10419 10419 10418 10415 10414 10414 10414 10413 10411 10410 10410 10409 10408 10407 10405 10404 10403 10402 10401 10400 10400 10399 10399 10399 10399 10399 10399 10399 10399 10398 10398 10397 10397 10397 10397 10397 10396 10395 10395 10393 10392 10390 10389 10387
10429 10430 10431 10431 10430 10429 10429 10428 10428 10427 10426 10425 10425 10427 10427 10426 10425 10424 10425 10425 10424 10424 10424 10425 10425 10425 10424 10424 10424 10424 10424 10421 10419 10417 10417 10416 10414 10413 10414 10415 10414 10412 10410 10410 10410 10409 10407 10407 10406 10405 10404 10403 10402 10401 10400 10400 10399 10397 10396 10395 10394 10393 10392 10392 10392 10392 10392 10392 10391 10391 10391 10390 10390 10390 10390 10389 10389 10389 10389 10389 10387 10386 10385 10383 10382 10380
10420 10421 10422 10422 10421 10420 10419 10419 10419 10419 10417 10417 10417 10418 10418 10418 10417 10417 10417 10417 10416 10415 10416 10416 10417 10417 10416 10415 10414 10415 10416 10416 10413 10409 10408 10408 10406 10404 10405 10407 10407 10404 10402 10402 10402 10400 10400 10399 10399 10397 10396 10395 10394 10394 10393 10392 10391 10390 10389 10387 10387 10385 10385 10384 10384 10384 10384 10384 10384 10384 10383 10383 10382 10382 10382 10382 10382 10382 10382 10381 10380 10379 10378 10377 10375 10374
10412 10412 10412 10412 10412 10411 10410 10410 10410 10410 10409 10409 10409 10409 10410 10410 10410 10410 10409 10408 10407 10407 10407 10407 10408 10409 10409 10407 10405 10405 10407 10409 10407 10403 10400 10399 10398 10397 10397 10399 10399 10396 10394 10394 10393 10392 10392 10392 10391 10390 10389 10387 10387 10385 10385 10385 10384 10383 10382 10380 10379 10378 10377 10377 10377 10376 10376 10376 10376 10376 10375 10375 10375 10375 10375 10374 10374 10374 10374 10374 10374 10372 10371 10370 10368 10367
10402 10402 10404 10404 10403 10402 10401 10402 10401 10400 10399 10399 10400 10401 10402 10402 10402 10401 10401 10400 10399 10399 10399 10399 10399 10399 10399 10399 10398 10397 10398 10400 10400 10395 10392 10391 10390 10389 10389 10390 10390 10388 10386 10385 10385 10385 10384 10384 10383 10382 10381 10380 10379 10378 10377 10377 10376 10375 10374 10373 10372 10371 10370 10369 10369 10369 10369 10369 10369 10369 10368 10368 10367 10367 10367 10367 10367 10367 10367 10366 10366 10365 10364 10362 10361 10360
10394 10394 10394 10394 10394 10393 10392 10392 10391 10391 10391 10390 10391 10392 10394 10394 10393 10392 10393 10392 10390 10390 10390 10390 10390 10389 10389 10390 10389 10389 10390 10392 10391 10388 10384 10384 10382 10382 10380 10381 10381 10380 10377 10377 10377 10377 10377 10376 10375 10374 10373 10372 10371 10370 10370 10369 10369 10367 10367 10365 10365 10364 10363 10362 10362 10361 10361 10361 10361 10360 10360 10360 10360 10360 10360 10359 10359 10359 10359 10359 10359 10358 10357 10355 10354 10353
10385 10385 10384 10384 10385 10385 10385 10382 10381 10381 10382 10382 10383 10384 10385 10384 10384 10384 10384 10382 10382 10382 10382 10381 10381 10380 10380 10381 10380 10380 10380 10382 10382 10380 10377 10375 10375 10374 10372 10373 10373 10372 10369 10368 10367 10368 10369 10369 10367 10366 10365 10365 10364 10362 10362 10361 10360 10360 10359 10358 10357 10356 10355 10355 10354 10354 10354 10354 10354 10353 10353 10352 10352 10352 10352 10352 10352 10352 10352 10351 10351 10350 10349 10349 10347 10346
10376 10376 10375 10374 10375 10377 10376 10374 10372 10372 10374 10374 10374 10374 10374 10374 10375 10375 10374 10373 10374 10374 10374 10372 10372 10372 10372 10372 10372 10370 10370 10372 10373 10372 10369 10368 10367 10365 10364 10365 10366 10364 10361 10359 10359 10360 10360 10360 10359 10358 10357 10357 10356 10355 10354 10353 10352 10352 10351 10350 10349 10349 10347 10347 10347 10346 10346 10346 10345 10345 10345 10345 10345 10344 10344 10344 10344 10344 10344 10344 10343 10343 10342 10341 10340 10339
10367 10367 10365 10365 10366 10367 10367 10365 10364 10364 10364 10364 10365 10365 10364 10365 10365 10365 10364 10364 10364 10364 10364 10363 10362 10363 10364 10364 10362 10362 10362 10362 10363 10363 10362 10360 10358 10355 10355 10357 10358 10356 10352 10350 10350 10352 10352 10350 10350 10349 10349 10349 10348 10347 10346 10345 10344 10344 10343 10342 10342 10340 10340 10339 10339 10339 10339 10339 10338 10337 10337 10337 10337 10337 10337 10337 10337 10336 10336 10336 10335 10335 10335 10334 10333 10332
10356 10357 10357 10356 10356 10357 10357 10356 10355 10355 10354 10355 10355 10355 10355 10355 10355 10355 10355 10354 10354 10354 10354 10353 10353 10354 10354 10353 10353 10353 10352 10352 10353 10354 10354 10351 10349 10347 10347 10349 10349 10347 10344 10342 10343 10344 10343 10341 10340 10340 10340 10340 10340 10339 10338 10337 10336 10335 10335 10334 10334 10333 10332 10332 10332 10331 10331 10330 10330 10330 10329 10329 10329 10329 10329 10329 10329 10329 10329 10329 10328 10328 10327 10326 10325 10325
10344 10345 10346 10346 10346 10346 10347 10346 10345 10345 10345 10345 10344 10344 10344 10345 10345 10345 10345 10345 10344 10344 10343 10343 10343 10343 10342 10342 10344 10344 10342 10342 10344 10345 10345 10342 10340 10339 10339 10339 10340 10339 10336 10334 10334 10335 10335 10333 10331 10330 10332 10332 10331 10330 10329 10329 10327 10327 10327 10326 10325 10325 10324 10324 10324 10324 10323 10323 10322 10322 10322 10322 10322 10322 10322 10322 10321 10321 10321 10321 10320 10320 10320 10319 10318 10317
10332 10334 10335 10335 10335 10335 10336 10336 10335 10335 10334 10334 10334 10334 10334 10334 10334 10334 10334 10334 10333 10332 10333 10333 10333 10332 10332 10333 10334 10334 10332 10332 10334 10335 10335 10334 10332 10330 10329 10329 10330 10331 10329 10325 10325 10326 10326 10324 10322 10321 10322 10323 10322 10322 10320 10320 10319 10319 10319 10318 10317 10317 10317 10316 10316 10315 10315 10315 10315 10314 10314 10314 10314 10314 10314 10314 10314 10314 10314 10314 10313 10313 10312 10312 10310 10310
10321 10322 10323 10324 10324 10324 10325 10325 10325 10324 10324 10324 10323 10323 10323 10324 10324 10324 10322 10320 10320 10322 10324 10324 10322 10320 10321 10322 10323 10323 10322 10324 10324 10324 10324 10324 10323 10321 10319 10319 10320 10322 10320 10317 10316 10317 10317 10315 10314 10312 10313 10314 10314 10313 10312 10311 10310 10310 10310 10310 10309 10309 10309 10308 10308 10307 10307 10307 10307 10306 10306 10306 10306 10306 10306 10306 10306 10306 10306 10306 10305 10305 10305 10304 10303 10302
10310 10311 10312 10312 10312 10313 10314 10314 10314 10314 10313 10312 10312 10312 10312 10313 10314 10313 10310 10308 10309 10311 10314 10312 10310 10310 10312 10312 10312 10312 10314 10314 10314 10313 10312 10314 10314 10312 10309 10309 10311 10313 10311 10309 10307 10307 10307 10306 10305 10304 10304 10304 10304 10304 10303 10302 10302 10302 10302 10302 10301 10300 10300 10300 10300 10300 10299 10299 10299 10299 10299 10298 10299 10299 10299 10299 10299 10299 10299 10299 10298 10298 10297 10297 10295 10295
10300 10300 10300 10300 10300 10301 10302 10302 10302 10302 10301 10301 10300 10300 10300 10301 10302 10302 10299 10297 10297 10300 10302 10300 10299 10300 10302 10302 10302 10302 10303 10304 10304 10302 10303 10304 10304 10300 10298 10300 10302 10303 10301 10300 10299 10298 10296 10295 10295 10295 10295 10294 10294 10294 10294 10294 10293 10293 10293 10293 10293 10292 10292 10292 10292 10291 10291 10291 10291 10290 10290 10290 10290 10291 10291 10291 10291 10291 10291 10291 10290 10290 10290 10289 10289 10288
10289 10288 10289 10289 10289 10289 10290 10291 10291 10290 10290 10289 10289 10289 10289 10289 10290 10290 10288 10287 10287 10289 10290 10289 10289 10289 10291 10292 10292 10292 10292 10292 10292 10293 10294 10295 10292 10289 10287 10290 10292 10292 10290 10291 10290 10289 10285 10284 10285 10286 10287 10285 10285 10284 10284 10284 10284 10284 10284 10285 10284 10284 10284 10283 10283 10283 10283 10283 10283 10283 10283 10283 10283 10283 10283 10283 10284 10284 10284 10283 10283 10283 10282 10282 10281 10280
10277 10277 10277 10277 10277 10277 10278 10279 10280 10279 10279 10278 10277 10277 10277 10277 10278 10277 10277 10277 10277 10278 10279 10278 10278 10278 10280 10282 10283 10282 10280 10280 10280 10283 10285 10285 10282 10278 10277 10280 10281 10280 10279 10281 10282 10280 10276 10274 10274 10275 10277 10277 10275 10275 10275 10275 10275 10275 10275 10275 10275 10275 10275 10275 10275 10275 10275 10275 10275 10275 10275 10275 10275 10275 10275 10275 10275 10275 10275 10275 10275 10275 10275 10274 10274 10274
10265 10265 10265 10265 10265 10265 10267 10268 10268 10267 10267 10267 10266 10265 10265 10265 10266 10265 10265 10265 10266 10267 10267 10267 10267 10267 10269 10270 10272 10272 10271 10270 10270 10272 10274 10275 10272 10268 10267 10269 10270 10270 10268 10270 10271 10271 10269 10265 10264 10264 10265 10266 10266 10265 10265 10266 10266 10267 10267 10267 10266 10266 10266 10266 10267 10267 10267 10267 10267 10267 10267 10267 10267 10268 10268 10268 10268 10268 10269 10269 10269 10268 10268 10267 10267 10266
10254 10255 10255 10254 10254 10254 10255 10256 10255 10255 10255 10255 10255 10254 10254 10254 10254 10254 10254 10255 10255 10256 10257 10257 10257 10257 10257 10259 10260 10261 10261 10260 10261 10262 10264 10264 10261 10258 10256 10257 10259 10259 10258 10259 10260 10260 10259 10257 10255 10254 10255 10255 10255 10256 10256 10257 10257 10258 10258 10258 10257 10257 10257 10258 10259 10259 10259 10259 10259 10259 10259 10260 10260 10260 10260 10260 10260 10261 10261 10261 10261 10261 10261 10260 10260 10259
10244 10244 10244 10244 10243 10243 10244 10244 10244 10243 10244 10244 10243 10242 10242 10242 10242 10242 10243 10244 10244 10245 10245 10246 10247 10247 10247 10248 10249 10249 10250 10250 10251 10252 10254 10252 10250 10247 10246 10247 10247 10247 10247 10248 10248 10249 10249 10248 10247 10245 10245 10245 10245 10246 10247 10247 10248 10249 10249 10249 10249 10249 10249 10249 10250 10250 10250 10251 10251 10251 10252 10252 10252 10253 10253 10253 10254 10254 10254 10254 10254 10254 10254 10254 10254 10253
10234 10234 10234 10233 10232 10232 10232 10231 10231 10231 10232 10232 10231 10231 10230 10230 10230 10231 10232 10232 10233 10234 10234 10235 10236 10237 10238 10238 10239 10239 10238 10239 10240 10242 10243 10242 10239 10237 10236 10236 10236 10237 10237 10237 10237 10237 10238 10237 10237 10237 10236 10235 10235 10235 10237 10239 10240 10240 10240 10240 10240 10240 10240 10241 10242 10242 10242 10243 10243 10243 10244 10244 10245 10245 10245 10246 10246 10247 10247 10247 10247 10247 10247 10247 10247 10246
10223 10223 10223 10222 10222 10222 10221 10220 10219 10219 10219 10219 10219 10219 10219 10219 10220 10220 10220 10221 10221 10222 10223 10224 10225 10227 10228 10229 10229 10229 10228 10228 10229 10230 10231 10230 10228 10227 10226 10225 10225 10226 10227 10227 10227 10227 10227 10227 10227 10227 10227 10226 10225 10226 10227 10230 10231 10232 10232 10232 10232 10232 10232 10233 10234 10234 10235 10235 10235 10235 10236 10237 10237 10238 10239 10239 10239 10240 10240 10240 10240 10240 10240 10240 10240 10240
10212 10212 10212 10211 10211 10210 10210 10209 10207 10207 10207 10207 10207 10207 10207 10208 10209 10209 10209 10209 10210 10211 10212 10214 10215 10216 10217 10218 10219 10219 10219 10219 10219 10219 10219 10218 10217 10217 10216 10215 10215 10216 10217 10217 10217 10217 10217 10217 10217 10217 10217 10217 10217 10217 10219 10221 10223 10224 10223 10223 10224 10224 10224 10225 10226 10227 10227 10227 10227 10228 10229 10230 10230 10231 10231 10232 10232 10232 10233 10233 10233 10234 10234 10234 10234 10234
10201 10202 10202 10200 10200 10199 10199 10198 10197 10196 10196 10196 10197 10197 10197 10197 10198 10198 10198 10198 10199 10200 10202 10204 10205 10205 10206 10207 10208 10209 10209 10209 10209 10209 10208 10207 10207 10206 10206 10205 10205 10206 10207 10207 10207 10207 10207 10208 10207 10207 10207 10208 10209 10210 10210 10212 10214 10214 10214 10215 10216 10217 10217 10217 10219 10219 10219 10220 10220 10221 10222 10222 10224 10224 10224 10225 10225 10225 10225 10225 10226 10227 10227 10227 10227 10227
10190 10190 10191 10190 10189 10189 10187 10187 10185 10185 10185 10185 10186 10187 10186 10187 10187 10187 10187 10187 10189 10190 10192 10194 10194 10195 10195 10196 10197 10197 10198 10198 10198 10198 10197 10197 10196 10196 10195 10195 10195 10196 10197 10197 10198 10198 10198 10198 10198 10199 10199 10200 10200 10202 10203 10204 10205 10206 10207 10208 10209 10209 10209 10210 10211 10212 10212 10213 10214 10214 10215 10215 10217 10217 10217 10218 10219 10219 10219 10219 10219 10220 10220 10220 10220 10220
10179 10180 10181 10180 10179 10178 10177 10176 10175 10175 10175 10176 10176 10176 10176 10176 10176 10176 10176 10177 10179 10181 10182 10183 10184 10184 10185 10185 10186 10187 10187 10187 10187 10187 10187 10187 10186 10186 10186 10186 10186 10187 10187 10188 10189 10189 10189 10189 10190 10190 10191 10192 10193 10194 10195 10195 10197 10198 10199 10200 10200 10201 10202 10204 10204 10205 10205 10206 10207 10207 10208 10209 10210 10210 10211 10211 10212 10212 10212 10212 10212 10213 10214 10214 10214 10214
10170 10171 10170 10170 10169 10168 10167 10165 10165 10165 10165 10166 10166 10165 10165 10165 10165 10166 10167 10169 10170 10172 10173 10173 10173 10174 10174 10174 10175 10176 10176 10177 10177 10177 10177 10177 10177 10176 10176 10177 10177 10177 10179 10179 10179 10180 10181 10182 10182 10182 10184 10184 10185 10186 10187 10188 10189 10190 10192 10192 10193 10194 10195 10197 10197 10198 10199 10200 10200 10201 10202 10203 10204 10204 10204 10205 10205 10205 10205 10206 10206 10207 10207 10208 10208 10207
10160 10160 10160 10159 10159 10157 10156 10155 10155 10155 10156 10156 10156 10155 10155 10155 10155 10157 10158 10160 10161 10162 10163 10163 10163 10163 10163 10164 10164 10165 10166 10167 10167 10167 10167 10167 10167 10167 10167 10167 10168 10169 10170 10170 10171 10172 10173 10174 10175 10175 10176 10177 10178 10179 10179 10180 10182 10184 10185 10185 10186 10187 10189 10190 10191 10192 10193 10194 10194 10195 10196 10197 10197 10197 10198 10198 10199 10199 10199 10200 10200 10200 10200 10201 10201 10201
10149 10150 10150 10149 10147 10146 10145 10145 10145 10145 10145 10146 10146 10146 10145 10146 10147 10148 10149 10151 10152 10153 10153 10152 10152 10153 10154 10154 10154 10155 10156 10157 10157 10158 10158 10158 10159 10159 10159 10159 10159 10160 10162 10162 10163 10164 10165 10167 10167 10168 10169 10170 10170 10171 10172 10173 10175 10177 10178 10179 10180 10181 10182 10182 10184 10187 10187 10187 10188 10189 10190 10190 10191 10192 10192 10192 10192 10192 10193 10194 10194 10194 10194 10195 10195 10195
10139 10139 10138 10137 10136 10136 10135 10135 10135 10135 10136 10137 10137 10136 10136 10137 10139 10140 10141 10142 10143 10144 10143 10142 10143 10144 10144 10144 10144 10145 10146 10147 10148 10149 10149 10149 10150 10150 10150 10150 10151 10152 10154 10155 10156 10157 10158 10159 10160 10160 10162 10163 10164 10164 10165 10166 10168 10170 10171 10173 10174 10175 10175 10176 10179 10180 10182 10182 10182 10184 10184 10185 10185 10185 10185 10186 10186 10186 10187 10187 10187 10187 10188 10189 10189 10189
10129 10127 10126 10125 10126 10127 10127 10126 10126 10127 10127 10127 10127 10127 10127 10129 10130 10132 10134 10134 10134 10134 10134 10134 10134 10135 10135 10135 10135 10136 10137 10138 10139 10139 10140 10141 10142 10142 10142 10143 10144 10145 10146 10147 10149 10150 10151 10152 10153 10154 10155 10156 10157 10157 10159 10160 10162 10164 10165 10167 10168 10169 10169 10171 10173 10175 10175 10176 10177 10178 10179 10179 10180 10180 10180 10180 10180 10180 10180 10180 10181 10181 10182 10182 10182 10182
10117 10116 10115 10115 10117 10117 10117 10117 10117 10118 10119 10119 10118 10119 10119 10121 10122 10124 10124 10125 10125 10124 10124 10125 10126 10127 10126 10126 10127 10128 10129 10129 10130 10131 10132 10133 10134 10134 10135 10136 10137 10138 10140 10140 10142 10143 10144 10145 10146 10147 10149 10150 10150 10151 10152 10154 10156 10158 10159 10160 10162 10163 10164 10165 10167 10169 10170 10171 10172 10172 10174 10174 10174 10174 10174 10174 10174 10174 10174 10174 10175 10175 10175 10176 10176 10175
10107 10105 10105 10107 10108 10109 10109 10109 10109 10110 10110 10109 10110 10110 10112 10114 10115 10115 10115 10115 10115 10115 10115 10117 10117 10118 10118 10118 10119 10120 10120 10121 10122 10124 10125 10125 10126 10127 10129 10129 10130 10132 10133 10134 10135 10137 10137 10139 10140 10141 10142 10144 10144 10145 10147 10149 10150 10152 10153 10155 10157 10158 10159 10160 10162 10164 10165 10165 10166 10167 10168 10169 10169 10169 10168 10169 10168 10168 10168 10168 10169 10169 10169 10170 10169 10169
10097 10097 10097 10099 10099 10100 10100 10100 10101 10101 10101 10101 10102 10104 10105 10106 10107 10107 10107 10107 10107 10108 10108 10109 10109 10110 10110 10110 10112 10112 10114 10114 10115 10116 10117 10119 10120 10121 10122 10123 10124 10125 10127 10128 10129 10130 10131 10132 10134 10135 10137 10138 10139 10140 10142 10144 10145 10147 10148 10150 10151 10152 10154 10155 10157 10158 10159 10160 10161 10162 10162 10163 10163 10163 10163 10163 10163 10162 10162 10162 10162 10163 10164 10164 10164 10163
10089 10089 10090 10090 10091 10092 10092 10092 10092 10093 10094 10094 10095 10097 10097 10098 10099 10099 10098 10098 10099 10100 10100 10101 10102 10102 10103 10104 10104 10105 10107 10108 10109 10110 10111 10112 10114 10115 10116 10117 10119 10120 10121 10122 10123 10124 10125 10127 10128 10130 10131 10133 10134 10135 10137 10139 10140 10142 10143 10145 10146 10147 10149 10150 10152 10153 10154 10155 10155 10156 10157 10157 10158 10158 10159 10158 10157 10156 10155 10155 10156 10157 10157 10157 10157 10157
10081 10081 10082 10082 10083 10084 10084 10084 10085 10085 10086 10087 10089 10089 10090 10090 10090 10090 10090 10090 10092 10092 10093 10094 10095 10095 10096 10097 10099 10100 10101 10102 10103 10104 10105 10107 10108 10110 10110 10112 10113 10114 10115 10116 10117 10119 10120 10121 10123 10124 10127 10128 10129 10130 10132 10134 10135 10137 10139 10140 10141 10142 10144 10145 10146 10148 10149 10149 10150 10150 10152 10152 10152 10153 10154 10153 10152 10151 10150 10150 10150 10150 10150 10152 10152 10150
10073 10074 10074 10075 10075 10075 10076 10077 10078 10079 10080 10080 10082 10082 10082 10082 10083 10083 10083 10084 10085 10086 10087 10088 10089 10090 10090 10092 10093 10094 10095 10096 10097 10099 10100 10101 10103 10104 10105 10106 10107 10109 10110 10111 10112 10114 10115 10117 10118 10120 10122 10124 10125 10126 10127 10129 10130 10132 10134 10135 10137 10138 10139 10140 10141 10142 10144 10144 10145 10145 10146 10147 10147 10147 10148 10147 10147 10146 10145 10144 10144 10144 10144 10145 10145 10144